Home   Weather   Fauske   Past weeks

Flag for Norway Past Weather in Fauske, Norway — Yesterday and Last 2 Weeks

Now
39 °F

Sunny.


Feels Like: 30 °F
Forecast: 19 / 39 °F
Wind: 16 mph from East

Location: Bodo Vi

Current Time: Apr 28, 2017 at 10:37:43 am

Latest Report: Apr 28, 2017 at 9:50 am


Visibility: 10 mi

Pressure: 30.24 "Hg

Humidity: 42%

Dew Point: 18 °F

Location of FauskeLocation

Past Weather in Fauske — Graph

°F

Fauske Temperature Yesterday

Maximum temperature yesterday: 43 °F (at 2:20 pm)
Minimum temperature yesterday: 32 °F (at 4:50 am)
Average temperature yesterday: 38 °F

High & Low Weather Summary for the Past Weeks

 TemperatureHumidityPressure
High43 °F (Apr 20, 11:20 am)100% (Apr 18, 9:20 pm)30.42 "Hg (Apr 18, 9:20 pm)
Low25 °F (Apr 14, 3:50 am)35% (Apr 16, 2:50 pm)28.91 "Hg (Apr 21, 7:50 am)
Average35 °F67%29.81 "Hg
* Reported Apr 13 9:20 am — Apr 28 9:20 am, Fauske, Weather by CustomWeather, © 2017

Note: Actual official high and low records may vary slightly from our data, if they occured in-between our weather recording intervals... More about our weather records

Advertising

Fauske Weather History for the Previous 24 Hours

Scroll right to see more
 ConditionsComfort  
Time TempWeatherWind HumidityBarometerVisibility
9:20 am
Fri, Apr 28
37 °FSunny.17 mph45%30.24 "Hg10 mi
8:50 am37 °FSunny.17 mph48%30.21 "Hg10 mi
8:20 am36 °FSunny.18 mph52%30.21 "Hg10 mi
7:50 am36 °FSunny.18 mph52%30.21 "Hg10 mi
7:20 am36 °FSunny.20 mph48%30.21 "Hg10 mi
6:50 am34 °FSunny.17 mph56%30.18 "Hg10 mi
6:20 am34 °FSunny.17 mph56%30.18 "Hg10 mi
5:50 am34 °FSunny.16 mph51%30.18 "Hg10 mi
5:20 am32 °FSunny.16 mph60%30.15 "Hg10 mi
4:50 am32 °FSunny.16 mph64%30.15 "Hg10 mi
3:50 am32 °FClear.14 mph60%30.12 "Hg10 mi
2:50 am34 °FClear.15 mph60%30.12 "Hg10 mi
1:50 am34 °FClear.14 mph60%30.09 "Hg10 mi
12:50 am34 °FClear.12 mph56%30.09 "Hg10 mi
11:50 pm
Thu, Apr 27
34 °FClear.9 mph60%30.07 "Hg10 mi
11:20 pm36 °FClear.10 mph60%30.07 "Hg10 mi
10:50 pm37 °FClear.9 mph56%30.04 "Hg10 mi
10:20 pm37 °FClear.8 mph48%30.04 "Hg10 mi
9:50 pm37 °FClear.8 mph45%30.04 "Hg10 mi
9:20 pm37 °FSunny.9 mph48%30.04 "Hg10 mi
8:50 pm39 °FSunny.8 mph45%30.01 "Hg10 mi
8:20 pm41 °FSunny.8 mph42%30.01 "Hg10 mi
7:50 pm41 °FSunny.10 mph42%30.01 "Hg10 mi
7:20 pm41 °FSunny.14 mph45%29.98 "Hg10 mi
6:50 pm41 °FSunny.14 mph45%29.98 "Hg10 mi
6:20 pm41 °FSunny.15 mph45%29.95 "Hg10 mi
5:50 pm41 °FPassing clouds.13 mph45%29.95 "HgN/A
5:20 pm43 °FPassing clouds.12 mph39%29.95 "HgN/A
4:50 pm43 °FPassing clouds.7 mph39%29.95 "HgN/A
4:20 pm43 °FPassing clouds.7 mph42%29.95 "HgN/A
3:50 pm41 °FPassing clouds.9 mph49%29.92 "HgN/A
3:20 pm43 °FPassing clouds.9 mph49%29.92 "HgN/A
2:50 pm43 °FPassing clouds.12 mph49%29.92 "HgN/A
2:20 pm43 °FPassing clouds.9 mph49%29.89 "HgN/A
1:50 pm41 °FPassing clouds.9 mph53%29.89 "HgN/A
1:20 pm41 °FPassing clouds.9 mph53%29.86 "HgN/A
12:50 pm39 °FPassing clouds.10 mph56%29.86 "HgN/A
12:20 pm41 °FPassing clouds.12 mph53%29.86 "HgN/A
11:50 am41 °FPassing clouds.10 mph53%29.86 "HgN/A
10:50 am39 °FPassing clouds.9 mph61%29.83 "HgN/A
10:20 am39 °FPassing clouds.3 mph70%29.83 "HgN/A
Weather by CustomWeather, © 2017

See weather overviewHow to use our weather pages